sat.trackr.live / text

‹ back to catalog

ONEWEB-0267

NORAD 48985 · 2021-060U

PAYLOAD ACTIVE UNKNOWN

§ Identity

Operator
Country
UK
Launch date
2021-07-01
Launch site
VOSTO
Launch vehicle
Mass (kg)
RCS (m²)

Purposes: comms

External: N2YO · Heavens-Above · Gunter

§ Orbital elements

Epoch: 2026-09-20T03:17:13.922016Z

Period
109.37 min
Inclination
87.9149°
Eccentricity
0.0002090
Mean motion
13.16593597 rev/d
Perigee alt
1,196.2 km
Apogee alt
1,199.3 km
Semi-major
7,575.9 km
B*
1.8255e-4
RAAN
209.9219°
Arg perigee
72.1883°
Mean anomaly
287.9475°
Rev number
25,208

§ Raw data

ONEWEB-02671 48985U 21060U   26263.13696669  .00000083  00000+0  18255-3 0  99922 48985  87.9149 209.9219 0002090  72.1883 287.9475 13.16593597252084

JSON: /api/v1/satellites/48985 · /tle

For live sub-satellite position, see the globe view (requires WebGL).

§ Visibility from observer

Set your observer location to see the next 7 days of passes ≥ 10°. The values pass through the URL so the page stays shareable.

No JS? Fill the form by hand. The geolocation button needs JavaScript.